Location: Ciula Mare
(45.6000°N, 22.8167°E)
Time: 11:12:21
(UTC+00:00)

DELTA 2 DEB (DPAF) - Pass Details

Date: 03 February 2023
Orbit: 624 x 629 km, 98.4° (Epoch: 31 March)

Event Time Altitude Azimuth Distance (km) Brightness Sun altitude
Rises 16:07:31 0° 15° (NNE) 2,929 7.2 -5.8°
Reaches altitude 10° 16:09:43 10° 17° (NNE) 2,019 6.4 -6.1°
Maximum altitude 16:14:07 75° 102° (ESE) 658 4.1 -6.9°
Drops below altitude 10° 16:18:30 10° 189° (S) 2,012 7.0 -7.6°
Sets 16:20:42 0° 191° (SSW) 2,918 7.9 -8.0°
